Regional Weather Roundup
Issued by NWS Boston, MA

Current Version | Previous Version | Text Only | Print | Product List | Glossary Off
Versions: 1 2 3 4 5 6 7 8 9 10 11 12 13 14 15 16 17 18 19 20 21 22 23 24 25 26 27 28 29 30 31 32 33 34 35 36 37 38 39 40 41 42 43 44 45 46 47 48 49 50
000 ASUS41 KBOX 202010 RWRBOX REGIONAL WEATHER ROUNDUP NATIONAL WEATHER SERVICE BOSTON/NORTON MA 400 PM EDT MON AUG 20 2018 NOTE: "FAIR" INDICATES FEW OR NO CLOUDS BELOW 12,000 FEET WITH NO SIGNIFICANT WEATHER AND/OR OBSTRUCTIONS TO VISIBILITY. MAZALL-202100- EASTERN MASSACHUSETTS CITY SKY/WX TMP DP RH WIND PRES REMARKS BOSTON FAIR 72 64 76 E13 30.17R BEVERLY FAIR 73 61 65 E10 30.16S LAWRENCE FAIR 77 59 53 E7 30.19S BEDFORD PTSUNNY 75 58 55 E10 30.15S BLUE HILL N/A 71 61 70 NE10G22 30.17R NORWOOD FAIR 76 62 62 E10 30.15S MARSHFIELD PTSUNNY 70 64 83 NE9G16 30.15F PLYMOUTH CLOUDY 71 64 78 NE10G21 30.15S TAUNTON PTSUNNY 75 61 61 NE9 30.14S NEW BEDFORD CLOUDY 73 64 73 NE13 30.13S $$ MAZALL-202100- CAPE COD AND THE ISLANDS CITY SKY/WX TMP DP RH WIND PRES REMARKS FALMOUTH CLOUDY 70 64 83 NE10G17 30.14S HYANNIS CLOUDY 71 65 81 N14G23 30.11R CHATHAM CLOUDY 69 63 81 NE13G18 30.13R PROVINCETOWN CLOUDY 69 64 84 NE14 30.14F NANTUCKET CLOUDY 69 66 90 N18G25 30.10S MARTHAS VNYRD CLOUDY 71 66 84 N13G21 30.11S $$ MAZALL-202100- CENTRAL AND WESTERN MASSACHUSETTS CITY SKY/WX TMP DP RH WIND PRES REMARKS WORCESTER CLOUDY 69 59 70 E8 30.18S FITCHBURG CLOUDY 73 58 59 E7 30.18R ORANGE CLOUDY 76 58 53 S7 30.17S SPRINGFIELD PTSUNNY 77 59 53 E7 30.14S WESTFIELD CLOUDY 76 60 57 CALM 30.14F NORTH ADAMS PTSUNNY 74 60 61 SE3 30.14F PITTSFIELD PTSUNNY 74 59 59 MISG 30.15F $$ RIZALL-202100- RHODE ISLAND CITY SKY/WX TMP DP RH WIND PRES REMARKS PROVIDENCE MOSUNNY 77 57 50 NE15 30.14S NEWPORT PTSUNNY 75 61 61 NE15 30.13S BLOCK ISLAND CLOUDY 71 65 81 NE9G18 30.13F SMITHFIELD FAIR 75 58 55 NE15 30.16S WESTERLY CLOUDY 80 63 55 N9 30.13F $$ CTZALL-202100- CONNECTICUT CITY SKY/WX TMP DP RH WIND PRES REMARKS BRADLEY INTL PTSUNNY 79 60 52 NE9 30.14F HARTFORD CLOUDY 77 61 57 NE8 30.13S BRIDGEPORT FAIR 76 64 66 SE6 30.13F DANBURY CLOUDY 71 65 81 SE3 30.15F GROTON CLOUDY 77 63 61 NE7 30.12S NEW HAVEN CLOUDY 75 65 70 S6 30.13F CHESTER N/A 75 63 64 CALM 30.14F MERIDEN CLOUDY 77 61 57 VRB5 30.13S WILLIMANTIC CLOUDY 77 60 55 E13 30.14S OXFORD CLOUDY 74 63 68 SE5 30.16S $$ MEZ002-015-021-024-NHZ003-005-008-011-012-014-VTZ005-008-202100- NORTHERN NEW ENGLAND CITY SKY/WX TMP DP RH WIND PRES REMARKS PORTLAND ME FAIR 71 61 70 E9 30.18S BANGOR ME PTSUNNY 76 54 46 VRB3 30.16S CONCORD NH FAIR 77 58 51 SE6 30.16S MANCHESTER NH PTSUNNY 77 57 50 SE14G21 30.15S NASHUA NH PTSUNNY 76 59 55 SE10 30.18R PORTSMOUTH NH MOSUNNY 72 58 60 E7 30.16S JAFFREY NH FAIR 74 60 61 SE8 30.20R KEENE NH CLOUDY N/A N/A N/A VRB7 30.16S BURLINGTON VT FAIR 82 57 42 VRB7 30.11F MT. WASHINGTON PTSUNNY 54 48 82 W10 N/A $$ NYZ052-076-202100- EASTERN NEW YORK CITY SKY/WX TMP DP RH WIND PRES REMARKS ALBANY PTSUNNY 77 58 51 VRB5 30.13F NEW YORK CITY CLOUDY 75 63 66 NE6 30.12F $$ ANZALL-202100- MARINE OBSERVATIONS STATION/POSITION TIME TEMP WIND PRES VSBY WAVE AIR SEA DIR/SP/G HT/PER (UTC) (F) (DEG/KT/KT) (MB) (MI) (FT/S) BOSTON BUOY 1950 67 68 40/ 12/ 14 1020.8S 5/ 7 BUZZARDS BAY 1900 70 40/ 21/ 23 1020.1R NANTUCKET SOUND 1950 70 75 40/ 16/ 19 1019.6R 2/ 4 MASS BAY-STELLWA 1904 67 67 40/ 12/ 14 1019.8F 1 7/8 5/ 6 ISLE OF SHOALS 1900 65 40/ 10/ 12 1021.4S S OF BLOCK IS 1943 70 N/A 4/ 5 $$ ......................KEY......................... SKY/WX - SKY CONDITION/PRESENT WEATHER TMP - TEMPERATURE IN FAHRENHEIT DWPT - DEWPOINT IN FAHRENHEIT RH - RELATIVE HUMIDITY IN PERCENT WIND - DIRECTION AND SPEED IN MPH PRES - MEAN SEA LEVEL PRESSURE IN INCHES OF HG WCI - WIND CHILL INDEX VSB - VISIBILITY IN MILES HX - HEAT INDEX TC - TEMPERATURE IN CELSIUS VRB - VARIABLE WIND DIRECTION N/A - NOT AVAILABLE

USA.gov is the U.S. government's official web portal to all federal, state and local government web resources and services.